Zurück zum Katalog

COSMOS 926 DEB

AktivPO
NORAD 13491·DEBRIS·🇷🇺 Russia

Gestartet Jul 8, 1977 von Plesetsk Cosmodrome

Loading…

Nächste Überflüge (nächste 24 Stunden)

TLE

AktuellSource: Space-Track

Epoche: Sep 14, 2026, 20:40 UTC

1 13491U 77062D   26257.86171219  .00000146  00000-0  13749-3 0  9995
2 13491  82.9262 283.8598 0019038 165.7612  13.1147 13.74709449265188

Verfolge COSMOS 926 DEB in Echtzeit mit AllMySat

Download on the App Store